Location: State Line Observation Field
(36.5320°N, 77.5360°W)
Time: 12:42:12
(UTC-05:00)

ISS - Visible Passes

Search period start: 20 November 2019 00:00
Search period end: 30 November 2019 00:00
Orbit: 412 x 421 km, 51.6° (Epoch: 20 November)

Date Brightness Start Highest point End Pass type
(mag) Time Alt. Az. Time Alt. Az. Time Alt. Az.
20 Nov -3.7 18:37:54 10° SW 18:40:56 66° S 18:40:56 66° S visible
21 Nov -3.0 17:49:48 10° SSW 17:52:54 37° SE 17:54:52 19° ENE visible
21 Nov -0.6 19:26:59 10° W 19:27:47 14° WNW 19:27:47 14° WNW visible
22 Nov -2.6 18:38:04 10° WSW 18:41:12 36° NW 18:41:37 34° NNW visible
23 Nov -3.5 17:49:25 10° WSW 17:52:44 64° NW 17:55:21 15° NE visible
24 Nov -1.5 18:39:07 10° WNW 18:41:22 17° NNW 18:41:56 16° NNW visible
25 Nov -1.9 17:49:58 10° W 17:52:44 24° NNW 17:55:31 10° NNE visible
27 Nov -1.2 17:51:25 10° NW 17:52:57 13° NNW 17:54:30 10° N visible
